Regional Weather Roundup
Issued by NWS Sioux Falls, SD

Home | Current Version | Previous Version | Graphics & Text | Print | Product List | Glossary Off
Versions: 1 2 3 4 5 6 7 8 9 10 11 12 13 14 15 16 17 18 19 20 21 22 23 24 25 26 27 28 29 30 31 32 33 34 35 36 37 38 39 40 41 42 43 44 45 46 47 48 49 50

000
ASUS43 KFSD 301810
RWRFSD

WEATHER ROUNDUP FOR SE SOUTH DAKOTA/SW MINNESOTA/NW IOWA
NATIONAL WEATHER SERVICE SIOUX FALLS SD
100 PM CDT SAT JUL 30 2016

NOTE: "FAIR" INDICATES FEW OR NO CLOUDS BELOW 12,000 FEET WITH NO
SIGNIFICANT WEATHER AND OR OBSTRUCTIONS TO VISIBILITY.


SDZ038>040-050-052>070-301900-
SOUTHEAST SOUTH DAKOTA

CITY           SKY/WX    TMP DP  RH WIND       PRES   REMARKS
BROOKINGS      MOSUNNY   76  60  57 SE10      30.01F
CHAMBERLAIN    SUNNY     84  64  50 S8G16     29.94F
6HR MIN TEMP:  60; 6HR MAX TEMP:  84;

HURON          SUNNY     81  58  45 S10G21    29.95F
6HR MIN TEMP:  60; 6HR MAX TEMP:  81;

MADISON        FAIR      75  63  64 SE12      30.01F
MITCHELL       MOSUNNY   82  62  50 SE12G22   29.97F
6HR MIN TEMP:  60; 6HR MAX TEMP:  83;

SIOUX FALLS    MOSUNNY   78  59  51 CALM      30.01F
6HR MIN TEMP:  56; 6HR MAX TEMP:  78;

WINNER         FAIR      83  63  50 S10       29.94F
YANKTON        PTSUNNY   79  61  53 SE12G18   29.98F
$$

MNZ071-072-080-081-089-090-097-098-301900-
SOUTHWEST MINNESOTA

CITY           SKY/WX    TMP DP  RH WIND       PRES   REMARKS
FAIRMONT       MOSUNNY   75  57  53 CALM      30.03S
JACKSON        SUNNY     75  52  43 S3        30.05F
LUVERNE        MOSUNNY   73  55  53 S5        30.03F
MARSHALL       SUNNY     76  57  51 VRB5      30.03S
6HR MIN TEMP:  58; 6HR MAX TEMP:  76;

MONTEVIDEO     MOSUNNY   79  59  50 S5        30.04S
REDWOOD FALLS  MOSUNNY   77  54  44 CALM      30.02F
TRACY          SUNNY     76  56  50 E6        30.03F
WINDOM         SUNNY     77  54  44 S6        30.04S
WORTHINGTON    SUNNY     76  54  46 VRB7      30.04F
$$

IAZ001>003-012>014-020>022-031-032-NEZ013-014-SDZ071-301900-
NORTHWEST IOWA

CITY           SKY/WX    TMP DP  RH WIND       PRES   REMARKS
CHEROKEE       MOSUNNY   78  61  55 SW5       30.03S
DENISON        MOSUNNY   77  64  65 SE6       30.01F
ESTHERVILLE    MOSUNNY   74  58  57 CALM      30.04S
LE MARS        MOSUNNY   79  61  53 VRB3      30.03S
SHELDON        PTSUNNY   75  61  60 VRB7      30.02S
SIOUX CITY     MOSUNNY   79  61  53 SE7       30.01S
6HR MIN TEMP:  57; 6HR MAX TEMP:  80;

SPENCER        SUNNY     78  59  51 VRB5      30.04S
6HR MIN TEMP:  54; 6HR MAX TEMP:  78;

STORM LAKE       N/A     75  63  64 SE7       30.04F
$$

ABBREVIATIONS USED IN REMARKS
   TC - TEMPERATURE IN CELSIUS
  WCI - WIND CHILL INDEX
   HX - HEAT INDEX
  VSB - VISIBILITY





USA.gov is the U.S. government's official web portal to all federal, state and local government web resources and services.